Washington, LA (70589)

10:13 PM CDT on August 24, 2016 (GMT -0500)
Evangeline Sub. | | Change Station
Active Advisory: Flood Warning

Elev 82 ft 30.58 °N, 92.08 °W | Updated 8 seconds ago

Clear
Clear
79.1 °F
Feels Like 83 °F
N
0.0
Wind Variable Wind from WNW

Today
High -- | Low -- °F
--% Chance of Precip.
Yesterday
High -- | Low -- °F
Precip. -- in
Pressure 30.09 in
Visibility 10.0 miles
Clouds Clear
Heat Index 83 °F
Dew Point 75 °F
Humidity 88%
Rainfall 0.18 in
Snow Depth Not available.
6:40 AM 7:39 PM
Waning Gibbous, 50% visible
METAR KOPL 250255Z AUTO 04003KT 10SM CLR 26/25 A3009 RMK AO2 T02570247 PWINO
Pressure 30.09 in
Visibility 10.0 miles
Clouds Clear
Heat Index 83 °F
Dew Point 75 °F
Humidity 88%
Rainfall 0.18 in
Snow Depth Not available.
6:40 AM 7:39 PM
Waning Gibbous, 50% visible
METAR KOPL 250255Z AUTO 04003KT 10SM CLR 26/25 A3009 RMK AO2 T02570247 PWINO

10-Day Weather Forecast

Almanac

Astronomy

Aug. 24, 2016 Rise Set
Actual Time
Civil Twilight
Nautical Twilight
Astronomical Twilight
Moon
Length of Visible Light
Length of Day
Tomorrow will be .
, % of the Moon is Illuminated

Today's Extremes

State Highs State Lows

Community

WunderPhotos

Upload Photos

1,934,787 photos uploaded!

WunderBlog® & News

Nearby

Air Quality

  Air Quality AQ Index Pollutant
Not available.

Snow Depth

Station Depth Elevation

Earthquake Activity

City Distance Mag. Time & Date
Minimum magnitude displayed is 2.5.

Coastal Water Temperatures

Place Temperature

Stations

Nearby Weather Stations

Station Location Temp. Windchill Dew Point Humidity Wind Precip. Elev Updated Type
                   

Watches & Warnings

Flood Warning
Issued: 8:43 PM CDT Aug. 24, 2016 – National Weather Service

The Flood Warning continues for
The Bayou Vermilion near Carencro.
* Until Friday afternoon... or until the warning is cancelled.
* At 8:00 PM Wednesday the stage was 17.5 feet.
* Minor flooding is occurring and minor flooding is forecast.
* Flood stage is 17.0 feet.
* Forecast... the river will continue to fall to below flood stage by
early Friday morning.
* Impact... at stages near 18.0 feet... roads along bayou fuseilier
are impassable. These include but are not limited to Walnut and
green roads along the St. Martin, St. Landry Parish line, as well
as meche Road in St. Landry Parish.


Lat... Lon 3026 9200 3028 9193 3031 9194 3032 9189
      3046 9198 3046 9201